Location: Katowice
(50.2611°N, 19.0242°E)
Time: 18:08:15
(UTC+02:00)

Explorer 7 - Pass Details

Date: 01 September 2019
Orbit: 485 x 680 km, 50.3° (Epoch: 18 October)

Event Time Altitude Azimuth Distance (km) Brightness Sun altitude
Rises 10:37:54 0° 280° (W) 3,017 10.2 40.6°
Reaches altitude 10° 10:40:18 10° 279° (W) 2,086 9.5 40.8°
Maximum altitude 10:45:07 78° 195° (SSW) 662 8.1 41.3°
Drops below altitude 10° 10:49:42 10° 109° (ESE) 1,981 10.5 41.8°
Sets 10:51:56 0° 108° (ESE) 2,853 11.1 42.0°
